Flag for Germany Weather past 2 weeks in Georgsmarienhütte, Lower Saxony, Germany

41 °F

Partly cloudy.

Feels Like: 41 °F
Forecast: 35 / 43 °F
Wind: 1 mph from Southeast

Location: Muenster / Osnabrueck

Current Time: Nov 25, 2015 at 6:07:32 PM

Latest Report: Nov 25, 2015 at 5:20 PM

Visibility: N/A

Pressure: 29.65 "Hg

Humidity: 87%

Dew point: 37 °F

Location of GeorgsmarienhütteLocation

Historic Weather in Georgsmarienhütte — Graph


Georgsmarienhütte temperature yesterday

Maximum temperature yesterday: 41 °F (at 12:20 PM)
Minimum temperature yesterday: 34 °F (at 6:50 PM)
Average temperature yesterday: 37 °F

Past Weeks' High & Low Weather Summary

High61 °F (Nov 17, 9:50 PM)100% (Nov 15, 4:50 AM)30.27 "Hg (Nov 15, 4:50 AM)
Low30 °F (Nov 22, 5:20 AM)47% (Nov 13, 4:20 PM)29.36 "Hg (Nov 21, 3:50 AM)
Average48 °F83%29.88 "Hg
* Reported Nov 10 4:20 PM — Nov 25 4:50 PM, Georgsmarienhütte, Weather by CustomWeather, © 2015

Note: Actual official high and low records may vary slightly from our data, if they occured in-between our weather recording intervals... More about our weather records


Georgsmarienhütte weather history for previous 24 hours

Time TempWeatherWind HumidityBarometerVisibility
4:50 PM
Wed, Nov 25
43 °FPartly cloudy.2 mph93%29.65 "HgN/A
4:20 PM41 °FBroken clouds.3 mph93%29.65 "HgN/A
3:50 PM43 °FScattered clouds.7 mph93%29.62 "HgN/A
3:20 PM45 °FPartly sunny.3 mph87%29.62 "HgN/A
2:50 PM45 °FPartly sunny.7 mph87%29.62 "HgN/A
2:20 PM45 °FPartly sunny.10 mph87%29.62 "HgN/A
1:50 PM45 °FPartly sunny.10 mph87%29.62 "HgN/A
1:20 PM45 °FBroken clouds.13 mph87%29.62 "HgN/A
12:50 PM45 °FBroken clouds.12 mph87%29.65 "Hg4 mi
12:20 PM45 °FBroken clouds.12 mph87%29.65 "Hg4 mi
11:50 AM45 °FFog.9 mph87%29.62 "Hg3 mi
11:20 AM43 °FSprinkles. Fog.7 mph93%29.65 "Hg3 mi
10:50 AM43 °FSprinkles. Fog.5 mph93%29.65 "Hg3 mi
10:20 AM43 °FSprinkles. Fog.7 mph93%29.65 "Hg3 mi
9:50 AM43 °FFog.7 mph93%29.65 "Hg2 mi
9:20 AM41 °FFog.8 mph100%29.65 "Hg2 mi
8:50 AM41 °FFog.8 mph93%29.65 "Hg2 mi
8:20 AM41 °FFog.9 mph93%29.65 "Hg2 mi
7:50 AM41 °FFog.9 mph93%29.62 "Hg2 mi
7:20 AM39 °FFog.7 mph100%29.62 "Hg3 mi
6:50 AM39 °FPassing clouds.9 mph100%29.62 "Hg4 mi
6:20 AM39 °FPassing clouds.9 mph100%29.62 "Hg4 mi
5:50 AM39 °FLight rain. Passing clouds.8 mph93%29.65 "Hg4 mi
5:20 AM39 °FPassing clouds.7 mph93%29.65 "Hg4 mi
4:20 AM39 °FPassing clouds.8 mph93%29.65 "Hg5 mi
3:50 AM39 °FPassing clouds.8 mph93%29.65 "Hg5 mi
3:20 AM37 °FPassing clouds.9 mph100%29.68 "Hg5 mi
2:50 AM37 °FPassing clouds.9 mph100%29.68 "Hg5 mi
2:20 AM37 °FPassing clouds.9 mph100%29.68 "HgN/A
1:20 AM37 °FPassing clouds.9 mph93%29.68 "Hg6 mi
12:50 AM37 °FLight rain. Passing clouds.10 mph93%29.71 "Hg4 mi
12:20 AM37 °FLight rain. Passing clouds.9 mph93%29.71 "HgN/A
11:50 PM
Tue, Nov 24
37 °FLight rain. Passing clouds.9 mph93%29.71 "HgN/A
11:20 PM36 °FLight rain. Passing clouds.8 mph100%29.74 "HgN/A
10:50 PM36 °FLight rain. Passing clouds.9 mph100%29.74 "HgN/A
10:20 PM36 °FLight rain. Passing clouds.10 mph93%29.74 "HgN/A
9:50 PM36 °FRain. Passing clouds.10 mph93%29.77 "Hg4 mi
9:20 PM36 °FLight rain. Passing clouds.10 mph93%29.77 "Hg4 mi
8:50 PM34 °FLight rain. Passing clouds.10 mph100%29.77 "Hg4 mi
8:20 PM34 °FLight rain. Passing clouds.9 mph100%29.77 "Hg4 mi
7:50 PM34 °FLight rain. Passing clouds.9 mph100%29.80 "Hg3 mi
7:20 PM34 °FSnow. Passing clouds.8 mph93%29.80 "Hg2 mi
6:50 PM34 °FLight rain. Passing clouds.10 mph100%29.83 "Hg4 mi
6:20 PM36 °FLight rain. Passing clouds.9 mph87%29.83 "Hg6 mi
Weather by CustomWeather, © 2015

See weather overviewHow to use our weather pages